Orbital Elements at Epoch 2459200.5 (2020-Dec-17.0) TDB
Reference: JPL 17 (heliocentric ecliptic J2000)
Element | Value | Uncertainty (1-sigma) | Units |
e | .2205051266857231 | 4.4235e-08 | |
a | 2.280547737283324 | 1.0299e-08 | au |
q | 1.777675269560826 | 1.0079e-07 | au |
i | 4.732365243253483 | 5.7034e-06 | deg |
node | 257.6361588917702 | 5.6171e-05 | deg |
peri | 93.05641603412387 | 5.846e-05 | deg |
M | 168.1736664992027 | 1.7512e-05 | deg |
tp | 2458612.858213941421 (2019-May-09.35821394) | 5.8571e-05 | TDB |
period | 1257.932037665904 3.44 | 8.5217e-06 2.333e-08 | d yr |
n | .2861839822984243 | 1.9387e-09 | deg/d |
Q | 2.783420205005822 | 1.2571e-08 | au |
|
| | Orbit Determination Parameters
Additional Information
|